timestamp,surface_pressure_avg,surface_temp_avg,battery_voltage,lat,long
2021-01-07 00:09:01+00:00,225.4798,4.1,12.57,47.84626,-54.09684
2021-01-07 00:19:01+00:00,221.5265,4.1,12.57,47.84626,-54.09684
2021-01-07 00:29:01+00:00,225.0547,4.1,12.57,47.84626,-54.09684
2021-01-07 00:39:01+00:00,229.1331,4.1,12.57,47.84626,-54.09684
2021-01-07 00:49:01+00:00,227.4031,4.1,12.57,47.84626,-54.09684
2021-01-07 00:59:01+00:00,226.2581,4.1,12.57,47.84626,-54.09684
2021-01-07 01:09:01+00:00,231.1781,4.1,12.57,47.84626,-54.09684
2021-01-07 01:19:01+00:00,232.4915,4.1,12.57,47.84626,-54.09684
2021-01-07 01:29:01+00:00,233.2398,4.11,12.57,47.84626,-54.09684
2021-01-07 01:39:01+00:00,237.5898,4.1,12.57,47.84626,-54.09684
2021-01-07 01:49:01+00:00,241.7914,4.1,12.57,47.84626,-54.09684
2021-01-07 01:59:01+00:00,243.2897,4.12,12.57,47.84626,-54.09684
2021-01-07 02:09:01+00:00,246.9748,4.13,12.57,47.84626,-54.09684
2021-01-07 02:19:01+00:00,254.7498,4.13,12.57,47.84626,-54.09684
2021-01-07 02:29:01+00:00,262.0364,4.15,12.57,47.84626,-54.09684
2021-01-07 02:39:01+00:00,267.5998,4.13,12.57,47.84626,-54.09684
2021-01-07 02:49:01+00:00,274.353,4.11,12.57,47.84626,-54.09684
2021-01-07 02:59:01+00:00,287.0114,4.1,12.57,47.84626,-54.09684
2021-01-07 03:09:01+00:00,295.2447,4.11,12.57,47.84626,-54.09684
2021-01-07 03:19:01+00:00,299.5897,4.15,12.57,47.84626,-54.09684
2021-01-07 03:29:01+00:00,307.5297,4.16,12.57,47.84626,-54.09684
2021-01-07 03:39:01+00:00,316.7714,4.17,12.57,47.84626,-54.09684
2021-01-07 03:49:01+00:00,320.413,4.17,12.57,47.84626,-54.09684
2021-01-07 03:59:01+00:00,323.2829,4.17,12.57,47.84626,-54.09684
2021-01-07 04:09:01+00:00,332.7863,4.16,12.57,47.84626,-54.09684
2021-01-07 04:19:01+00:00,336.528,4.18,12.57,47.84626,-54.09684
2021-01-07 04:29:01+00:00,332.5114,4.19,12.57,47.84626,-54.09684
2021-01-07 04:39:01+00:00,338.7746,4.2,12.57,47.84626,-54.09684
2021-01-07 04:49:01+00:00,343.8829,4.2,12.57,47.84626,-54.09684
2021-01-07 04:59:01+00:00,343.5447,4.19,12.57,47.84626,-54.09684
2021-01-07 05:09:01+00:00,346.8713,4.2,12.57,47.84626,-54.09684
2021-01-07 05:19:01+00:00,349.7596,4.2,12.57,47.84626,-54.09684
2021-01-07 05:29:01+00:00,350.2013,4.2,12.57,47.84626,-54.09684
2021-01-07 05:39:01+00:00,350.0563,4.2,12.57,47.84626,-54.09684
2021-01-07 05:49:01+00:00,356.0146,4.2,12.57,47.84626,-54.09684
2021-01-07 05:59:01+00:00,356.4613,4.2,12.57,47.84626,-54.09684
2021-01-07 06:09:01+00:00,354.6696,4.2,12.57,47.84626,-54.09684
2021-01-07 06:19:01+00:00,357.8913,4.2,12.57,47.84626,-54.09684
2021-01-07 06:29:01+00:00,356.2245,4.2,12.57,47.84626,-54.09684
2021-01-07 06:39:01+00:00,353.0679,4.2,12.57,47.84626,-54.09684
2021-01-07 06:49:01+00:00,350.2847,4.22,12.57,47.84626,-54.09684
2021-01-07 06:59:01+00:00,350.1846,4.2,12.57,47.84626,-54.09684
2021-01-07 07:09:01+00:00,348.4896,4.2,12.57,47.84626,-54.09684
2021-01-07 07:19:01+00:00,346.9346,4.2,12.57,47.84626,-54.09684
2021-01-07 07:29:01+00:00,343.3563,4.2,12.57,47.84626,-54.09684
2021-01-07 07:39:01+00:00,335.4012,4.2,12.57,47.84626,-54.09684
2021-01-07 07:49:01+00:00,330.2614,4.2,12.57,47.84626,-54.09684
2021-01-07 07:59:01+00:00,327.303,4.2,12.57,47.84626,-54.09684
2021-01-07 08:09:01+00:00,319.5062,4.2,12.57,47.84626,-54.09684
2021-01-07 08:19:01+00:00,304.5164,4.2,12.57,47.84626,-54.09684
2021-01-07 08:29:01+00:00,299.1347,4.2,12.57,47.84626,-54.09684
2021-01-07 08:39:01+00:00,293.968,4.2,12.57,47.84626,-54.09684
2021-01-07 08:49:01+00:00,284.7947,4.2,12.57,47.84626,-54.09684
2021-01-07 08:59:01+00:00,276.5081,4.2,12.57,47.84626,-54.09684
2021-01-07 09:09:01+00:00,280.1247,4.2,12.57,47.84626,-54.09684
2021-01-07 09:19:01+00:00,275.0631,4.2,12.57,47.84626,-54.09684
2021-01-07 09:29:01+00:00,261.5064,4.2,12.57,47.84626,-54.09684
2021-01-07 09:39:01+00:00,256.9448,4.2,12.57,47.84626,-54.09684
2021-01-07 09:49:01+00:00,259.6047,4.2,12.57,47.84626,-54.09684
2021-01-07 09:59:01+00:00,252.8781,4.2,12.57,47.84626,-54.09684
2021-01-07 10:09:01+00:00,240.2947,4.2,12.57,47.84626,-54.09684
2021-01-07 10:19:01+00:00,237.7848,4.2,12.57,47.84626,-54.09684
2021-01-07 10:29:01+00:00,241.6881,4.2,12.57,47.84626,-54.09684
2021-01-07 10:39:01+00:00,236.1498,4.2,12.57,47.84626,-54.09684
2021-01-07 10:49:01+00:00,226.8764,4.2,12.57,47.84626,-54.09684
2021-01-07 10:59:01+00:00,229.4314,4.2,12.57,47.84626,-54.09684
2021-01-07 11:09:01+00:00,233.8181,4.2,12.57,47.84626,-54.09684
2021-01-07 11:19:01+00:00,226.6948,4.2,12.57,47.84626,-54.09684
2021-01-07 11:29:01+00:00,223.4115,4.2,12.57,47.84626,-54.09684
2021-01-07 11:39:01+00:00,229.5564,4.2,12.57,47.84626,-54.09684
2021-01-07 11:49:01+00:00,226.8681,4.19,12.57,47.84626,-54.09684
2021-01-07 11:59:01+00:00,226.2281,4.2,12.57,47.84626,-54.09684
2021-01-07 12:09:01+00:00,233.0748,4.19,12.57,47.84626,-54.09684
2021-01-07 12:19:01+00:00,237.7431,4.19,12.57,47.84626,-54.09684
2021-01-07 12:29:01+00:00,237.2064,4.19,12.57,47.84626,-54.09684
2021-01-07 12:39:01+00:00,238.1831,4.19,12.57,47.84626,-54.09684
2021-01-07 12:49:01+00:00,242.6448,4.23,12.57,47.84626,-54.09684
2021-01-07 12:59:01+00:00,242.6014,4.3,12.57,47.84626,-54.09684
2021-01-07 13:09:01+00:00,242.3914,4.3,12.57,47.84626,-54.09684
2021-01-07 13:19:01+00:00,245.2531,4.3,12.57,47.84626,-54.09684
2021-01-07 13:29:01+00:00,240.2248,4.3,12.57,47.84626,-54.09684
2021-01-07 13:39:01+00:00,236.2732,4.3,12.57,47.84626,-54.09684
2021-01-07 13:49:01+00:00,244.1131,4.27,12.57,47.84626,-54.09684
2021-01-07 13:59:01+00:00,250.3997,4.22,12.57,47.84626,-54.09684
2021-01-07 14:09:01+00:00,249.4398,4.24,12.57,47.84626,-54.09684
2021-01-07 14:19:01+00:00,254.2631,4.2,12.57,47.84626,-54.09684
2021-01-07 14:29:01+00:00,264.9231,4.2,12.57,47.84626,-54.09684
2021-01-07 14:39:01+00:00,264.4364,4.2,12.57,47.84626,-54.09684
2021-01-07 14:49:01+00:00,260.2731,4.2,12.57,47.84626,-54.09684
2021-01-07 14:59:01+00:00,268.0398,4.2,12.57,47.84626,-54.09684
2021-01-07 15:09:01+00:00,279.3196,4.29,12.57,47.84626,-54.09684
2021-01-07 15:19:01+00:00,282.1447,4.17,12.57,47.84626,-54.09684
2021-01-07 15:29:01+00:00,282.2564,4.17,12.57,47.84626,-54.09684
2021-01-07 15:39:01+00:00,293.743,4.18,12.57,47.84626,-54.09684
2021-01-07 15:49:01+00:00,304.7997,4.19,12.57,47.84626,-54.09684
2021-01-07 15:59:01+00:00,309.6014,4.19,12.57,47.84626,-54.09684
2021-01-07 16:09:01+00:00,311.048,4.2,12.57,47.84626,-54.09684
2021-01-07 16:19:01+00:00,326.653,4.2,12.57,47.84626,-54.09684
2021-01-07 16:29:01+00:00,335.848,4.2,12.57,47.84626,-54.09684
2021-01-07 16:39:01+00:00,328.8797,4.2,12.57,47.84626,-54.09684
2021-01-07 16:49:01+00:00,329.7747,4.2,12.57,47.84626,-54.09684
2021-01-07 16:59:01+00:00,338.1962,4.19,12.57,47.84626,-54.09684
2021-01-07 17:09:01+00:00,340.1497,4.2,12.57,47.84626,-54.09684
2021-01-07 17:19:01+00:00,336.6663,4.19,12.57,47.84626,-54.09684
2021-01-07 17:29:01+00:00,337.9263,4.15,12.57,47.84626,-54.09684
2021-01-07 17:39:01+00:00,342.5630000000001,4.16,12.57,47.84626,-54.09684
2021-01-07 17:49:01+00:00,337.168,4.17,12.57,47.84626,-54.09684
2021-01-07 17:59:01+00:00,338.3146,4.19,12.57,47.84626,-54.09684
2021-01-07 18:09:01+00:00,344.8181,4.2,12.57,47.84626,-54.09684
2021-01-07 18:19:01+00:00,345.793,4.2,12.65,47.84626,-54.09684
2021-01-07 18:29:01+00:00,343.343,4.2,12.65,47.84626,-54.09684
2021-01-07 18:39:01+00:00,340.9462,4.2,12.65,47.84626,-54.09684
2021-01-07 18:49:01+00:00,340.7913,4.2,12.65,47.84626,-54.09684
2021-01-07 18:59:01+00:00,343.288,4.2,12.65,47.84626,-54.09684
2021-01-07 19:09:01+00:00,348.0446,4.2,12.65,47.84626,-54.09684
2021-01-07 19:19:01+00:00,346.5413,4.2,12.57,47.84626,-54.09684
2021-01-07 19:29:01+00:00,340.3596,4.2,12.57,47.84626,-54.09684
2021-01-07 19:39:01+00:00,343.9696,4.2,12.57,47.84626,-54.09684
2021-01-07 19:49:01+00:00,344.5397,4.2,12.57,47.84626,-54.09684
2021-01-07 19:59:01+00:00,336.603,4.2,12.57,47.84626,-54.09684
2021-01-07 20:09:01+00:00,333.9814,4.2,12.57,47.84626,-54.09684
2021-01-07 20:19:01+00:00,332.6046,4.2,12.57,47.84626,-54.09684
2021-01-07 20:29:01+00:00,324.9713,4.28,12.57,47.84626,-54.09684
2021-01-07 20:39:01+00:00,314.8497,4.3,12.57,47.84626,-54.09684
2021-01-07 20:49:01+00:00,311.4547,4.3,12.57,47.84626,-54.09684
2021-01-07 20:59:01+00:00,307.068,4.3,12.57,47.84626,-54.09684
2021-01-07 21:09:01+00:00,300.1913,4.3,12.57,47.84626,-54.09684
2021-01-07 21:19:01+00:00,296.678,4.3,12.57,47.84626,-54.09684
2021-01-07 21:29:01+00:00,292.2748,4.26,12.57,47.84626,-54.09684
2021-01-07 21:39:01+00:00,283.2964,4.24,12.57,47.84626,-54.09684
2021-01-07 21:49:01+00:00,276.5413,4.25,12.57,47.84626,-54.09684
2021-01-07 21:59:01+00:00,274.7631,4.25,12.57,47.84626,-54.09684
2021-01-07 22:09:01+00:00,269.4481,4.25,12.57,47.84626,-54.09684
2021-01-07 22:19:01+00:00,263.5164,4.23,12.57,47.84626,-54.09684
2021-01-07 22:29:01+00:00,259.8064,4.25,12.57,47.84626,-54.09684
2021-01-07 22:39:01+00:00,253.9164,4.25,12.57,47.84626,-54.09684
2021-01-07 22:49:01+00:00,246.4581,4.26,12.57,47.84626,-54.09684
2021-01-07 22:59:01+00:00,244.8631,4.29,12.57,47.84626,-54.09684
2021-01-07 23:09:01+00:00,242.1431,4.29,12.57,47.84626,-54.09684
2021-01-07 23:19:01+00:00,238.0781,4.29,12.49,47.84626,-54.09684
2021-01-07 23:29:01+00:00,234.0815,4.29,12.49,47.84626,-54.09684
2021-01-07 23:39:01+00:00,231.6464,4.3,12.49,47.84626,-54.09684
2021-01-07 23:49:01+00:00,227.4464,4.29,12.49,47.84626,-54.09684
2021-01-07 23:59:01+00:00,226.3048,4.29,12.49,47.84626,-54.09684
